Location: Wald
(31.7579°N, 86.6655°W)
Time: 12:30:16
(UTC+00:00)

ERS-1 Rocket - Pass Details

Date: 14 July 2020
Orbit: 752 x 758 km, 98.5° (Epoch: 09 August)

Event Time Altitude Azimuth Distance (km) Brightness Sun altitude
Exits shadow 03:16:29 55° 74° (ENE) 904 3.1 -24.8°
Drops below altitude 10° 03:21:24 10° 357° (N) 2,289 6.1 -25.5°
Sets 03:23:44 0° 354° (N) 3,217 7.1 -25.8°
